Powrót do katalogu

COSMOS 1275 DEB

AktywnyPO
NORAD 12719·DEBRIS·🇷🇺 Russia

Wystrzelony Jun 4, 1981 z Plesetsk Cosmodrome

Loading…

Następne Przeloty (najbliższe 24 godziny)

TLE

ŚwieżeSource: Space-Track

Epoka: Sep 14, 2026, 12:40 UTC

1 12719U 81053BL  26257.52819537  .00000358  00000-0  25539-3 0  9992
2 12719  82.9621 332.0896 0023911  93.1318 329.7732 13.94666772282020

Śledź COSMOS 1275 DEB w czasie rzeczywistym z AllMySat

Download on the App Store